Location: Austin
(30.3000°N, 97.7500°W)
Time: 04:42:33
(UTC-05:00)

FALCON 9 R/B - Pass Details

Date: 18 March 2023
Orbit: 212 x 14770 km, 27.0° (Epoch: 01 April)

Event Time Altitude Azimuth Distance (km) Brightness Sun altitude
Rises 20:18:05 0° 261° (W) 2,367 6.2 -8.8°
Reaches altitude 10° 20:19:22 10° 258° (WSW) 1,797 5.1 -9.1°
Maximum altitude 20:23:00 67° 174° (S) 1,064 2.4 -9.9°
Enters shadow 20:34:57 14° 96° (E) 5,681 5.4 -12.4°
